Location: Newark
(54.5042°N, 3.3564°W)
Time: 03:27:39
(UTC+00:00)

ISS - Visible Passes

Search period start: 20 July 2019 00:00
Search period end: 30 July 2019 00:00
Orbit: 409 x 418 km, 51.6° (Epoch: 20 July)

Date Brightness Start Highest point End Pass type
(mag) Time Alt. Az. Time Alt. Az. Time Alt. Az.
20 Jul -3.2 01:02:43 10° W 01:05:49 35° SSW 01:08:53 10° SE visible
20 Jul -1.8 02:40:19 10° WSW 02:45:51 - SSE 02:41:11 12° SW visible
20 Jul -3.6 22:36:56 10° WSW 22:40:10 49° S 22:43:25 10° E visible
21 Jul -3.5 00:13:24 10° W 00:16:36 43° SSW 00:18:01 26° SE visible
21 Jul -1.5 01:50:26 10° WSW 01:50:45 11° WSW 01:50:45 11° WSW visible
21 Jul -3.4 21:47:43 10° WSW 21:50:55 43° SSE 21:54:07 10° E visible
21 Jul -3.6 23:24:07 10° W 23:27:22 48° S 23:29:23 20° ESE visible
22 Jul -2.0 01:00:53 10° W 01:02:10 18° WSW 01:02:10 18° WSW visible
22 Jul -3.6 22:34:49 10° W 22:38:05 52° S 22:41:11 11° ESE visible
23 Jul -2.8 00:11:28 10° W 00:13:58 29° SW 00:13:58 29° SW visible
23 Jul -3.6 21:45:32 10° WSW 21:48:48 51° S 21:52:03 10° E visible
23 Jul -3.2 23:22:05 10° W 23:25:12 37° SSW 23:25:55 33° SSE visible
24 Jul -3.4 22:32:43 10° W 22:35:56 44° SSW 22:37:56 20° SE visible
25 Jul -1.7 00:09:40 10° WSW 00:10:44 15° WSW 00:10:44 15° WSW visible
25 Jul -3.5 21:43:23 10° W 21:46:39 50° S 21:49:53 10° ESE visible
25 Jul -2.6 23:20:07 10° W 23:22:49 25° SSW 23:22:49 25° SSW visible
26 Jul -2.9 22:30:40 10° W 22:33:42 32° SSW 22:34:56 24° SSE visible
27 Jul -3.2 21:41:16 10° W 21:44:25 40° SSW 21:47:04 13° SE visible
27 Jul -1.7 23:18:28 10° WSW 23:19:53 15° SW 23:19:53 15° SW visible
28 Jul -2.2 22:28:43 10° W 22:31:19 21° SSW 22:32:03 19° S visible
29 Jul -2.5 21:39:10 10° W 21:42:04 27° SSW 21:44:15 14° SSE visible
